Terug naar catalogus

STARLINK-31991

ActiefCommunicatieVLEO
NORAD 59963·PAYLOAD·🇺🇸 United States

Gelanceerd Jun 5, 2024 vanaf Cape Canaveral Space Force Station

Loading…

Volgende Passages (komende 24 uur)

TLE

VersSource: CelesTrak SupGP

Epoch: Sep 14, 2026, 21:10 UTC

1 59963C 24107U   26257.88243056  .00056204  00000+0  16608-2 0  2570
2 59963  53.1572 263.9294 0001226  94.7143 224.0893 15.34357945    16

Volg STARLINK-31991 in realtime met AllMySat

Download on the App Store